608  
SXUS52 KTAE 051303  
OSOTAE  
OSOTAE  
NORTH FLORIDA/SOUTH ALABAMA/SOUTHWEST GEORGIA WEATHER ROUNDUP  
NATIONAL WEATHER SERVICE TALLAHASSEE FLORIDA  
900 AM EDT TUE JUL 05 2022  
 
NOTE: "FAIR" INDICATES FEW OR NO CLOUDS BELOW 12,000 FEET WITH NO  
SIGNIFICANT WEATHER AND/OR OBSTRUCTIONS TO VISIBILITY.  
 
!FLZ017-115-028-034-025-051400   
..NORTH FLORIDA
 
 
 
CITY SKY/WX TMP DP RH WIND PRES REMARKS  
TALL INTL ARPT MOSUNNY 79 75 87 VRB3 30.09S  
FSU LOVE BLDG NOT AVBL  
APALACHICOLA MOSUNNY 83 77 82 N5 30.09S HX 92  
PERRY NOT AVBL  
CROSS CITY SUNNY 82 76 82 S3 30.10R  
JACKSONVILLE PTSUNNY 83 74 74 S9 30.09R  

 
 
!FLZ112-006-005-002-011-051400   
..FLORIDA PANHANDLE
 
 
 
CITY SKY/WX TMP DP RH WIND PRES REMARKS  
MARIANNA SUNNY 79 76 90 NE3 30.10R  
BONIFAY NOT AVBL  
PANAMA CITY NW FAIR 80 76 87 CALM 30.09S  
TYNDALL AFB MOSUNNY 81 75 80 CALM 30.09R  
TYND DRONE APT FAIR 84 77 80 CALM 30.07R HX 94  
DE FUNIAK SPR FAIR 79 74 83 CALM 30.12R  
EGLIN AFB SUNNY 82 74 78 CALM 30.09R  
DESTIN SUNNY 84 76 76 CALM 30.10R HX 93  
HURLBURT SUNNY 80 76 87 CALM 30.09R  
CRESTVIEW SUNNY 80 76 87 CALM 30.12S  
PENSACOLA SUNNY 82 78 88 E5 30.10R HX 91  

 
 
!ALZ063-066-051400   
..SOUTH ALABAMA
 
 
 
CITY SKY/WX TMP DP RH WIND PRES REMARKS  
DOTHAN PTSUNNY 78 77 96 NW6 30.14R  
OZARK CAIRNS MOSUNNY 79 79 100 W5 30.11R  
FT RUCKER HELI MOSUNNY 77 76 96 CALM 30.15R  
RUCKER HELI 3 N/A 78 75 91 CALM 30.11S  
RUCKER HELI 2 FAIR 77 77 99 W5 30.09R  
FLORALA APT SUNNY 81 74 79 CALM 30.13R  
ANDALUSIA NOT AVBL  
TROY SUNNY 81 72 74 W3 30.13R  
EUFALA FAIR 82 76 81 CALM 30.11S  
MOBILE CLOUDY 83 79 88 SE6 30.11R FOG HX 94  

 
 
!GAZ120>161-051400   
..SOUTHWEST AND SOUTH CENTRAL GEORGIA
 
 
 
CITY SKY/WX TMP DP RH WIND PRES REMARKS  
THOMASVILLE FAIR 79 73 83 CALM 30.12R  
BAINBRIDGE SUNNY 80 76 89 NW5 30.11R  
MOODY AFB SUNNY 83 75 75 W5 30.09R HX 90  
VALDOSTA SUNNY 83 76 79 VRB3 30.10R HX 91  
MOULTRIE SUNNY 79 73 83 NW3 30.12R  
BLAKELY FOG 73 72 94 CALM 30.11R VSB 3/4  
ALBANY SUNNY 80 75 84 NW3 30.11R  
TIFTON N/A 81 75 80 CALM 30.10R  
FITZGERALD FAIR 80 75 85 CALM 30.11R  
CORDELE NOT AVBL  
AMERICUS NOT AVBL  
HOMERVILLE FAIR 78 76 94 S3 30.10R  

 
 
!GMZ750-755-770-775-051400   
..COASTAL AND BUOY OBS
 
 
 
STATION/POSITION TIME TEMP WIND PRES VSBY WAVE  
AIR SEA DIR/SP/G HT/PER  
(UTC) (F) (DEG/KT/KT) (MB) (MI) (FT/S)  
KEATON BEACH 1200 81 70/ 2/ 2 1018.7R  
CEDAR KEY 1200 83 150/ 7/ 9 1018.8R  
C TOWER 1200 80 10/ 4/ 5 1018.9S  
APALACHICOLA BUO 1240 85 86 50/ 4/ 6 1017.8  
PANAMA CITY BUOY 1240 85 86 20/ 4/ 4 1019.5R  
MOBILE BUOY 1240 81 86 230/ 8/ 10 1019.5  
ORANGE BCH AL BU 1240 84 190/ 4/ 6 N/A  

 
 
 
CLICK HERE TO GO TO PREVIOUS BULLETINS.

The Nexlab FL Page
The Nexlab GA Page
The Nexlab AL Page Main Text Page